sat.trackr.live / text

‹ back to catalog

STARLINK-32814

NORAD 62871 · 2025-022T

PAYLOAD ACTIVE UNKNOWN

§ Identity

Operator
Country
US
Launch date
2025-02-01
Launch site
AFWTR
Launch vehicle
Mass (kg)
RCS (m²)

Purposes: comms

External: N2YO · Heavens-Above · Gunter

§ Orbital elements

Epoch: 2026-09-20T19:46:35.317632Z

Period
93.85 min
Inclination
53.1582°
Eccentricity
0.0000857
Mean motion
15.34393331 rev/d
Perigee alt
462.1 km
Apogee alt
463.3 km
Semi-major
6,840.9 km
B*
4.7424e-4
RAAN
299.8661°
Arg perigee
77.6109°
Mean anomaly
282.4990°
Rev number
9,182

§ Raw data

STARLINK-328141 62871U 25022T   26263.82401988  .00015677  00000+0  47424-3 0  99932 62871  53.1582 299.8661 0000857  77.6109 282.4990 15.34393331 91820

JSON: /api/v1/satellites/62871 · /tle

For live sub-satellite position, see the globe view (requires WebGL).

§ Visibility from observer

Set your observer location to see the next 7 days of passes ≥ 10°. The values pass through the URL so the page stays shareable.

No JS? Fill the form by hand. The geolocation button needs JavaScript.